This is the latest recevied weather packets stored in our database for station/object N3LF. If no packets are shown the sender has not sent any weather packets the latest 10 day(s).
| Time | Temp. | Humidity | Pressure | Rain* | Wind** | Luminosity | Snow |
|---|---|---|---|---|---|---|---|
| 1777467125 | 17.78° C | 99% | 1014.1 hPa | 0 mm | - | 79 W/m² | - |
| 1777466823 | 17.22° C | 99% | 1014.2 hPa | 0 mm | - | 91 W/m² | - |
| 1777466521 | 17.22° C | 99% | 1014.3 hPa | 0 mm | - | 49 W/m² | - |
| 1777466216 | 17.22° C | 99% | 1014.5 hPa | 0 mm | - | 69 W/m² | - |
| 1777465913 | 17.22° C | 99% | 1014.4 hPa | 0 mm | - | 56 W/m² | - |
| 1777465609 | 17.22° C | 99% | 1014.2 hPa | 0 mm | - | 42 W/m² | - |
| 1777465304 | 16.67° C | 99% | 1014.4 hPa | 0 mm | - | 53 W/m² | - |
| 1777464998 | 16.67° C | 99% | 1014.3 hPa | 0 mm | - | 31 W/m² | - |
| 1777464694 | 16.67° C | 99% | 1014.1 hPa | 0 mm | - | 27 W/m² | - |
| 1777464391 | 16.67° C | 99% | 1014.2 hPa | 0 mm | - | 19 W/m² | - |
| 1777464087 | 16.67° C | 99% | 1014.2 hPa | 0 mm | - | 27 W/m² | - |
| 1777463786 | 16.67° C | 99% | 1014.1 hPa | 0 mm | - | 19 W/m² | - |
| 1777463481 | 16.67° C | 99% | 1014.2 hPa | 0 mm | - | 17 W/m² | - |
| 1777463177 | 16.67° C | 99% | 1014.3 hPa | 0 mm | - | 17 W/m² | - |
| 1777462873 | 16.67° C | 99% | 1014.1 hPa | 0 mm | - | 21 W/m² | - |
| 1777462570 | 16.67° C | 99% | 1014.1 hPa | 0 mm | - | 21 W/m² | - |
| 1777462265 | 16.67° C | 99% | 1014.1 hPa | 0 mm | - | 17 W/m² | - |
| 1777461961 | 16.67° C | 99% | 1014 hPa | 0 mm | - | 8 W/m² | - |
| 1777461659 | 16.67° C | 99% | 1014.1 hPa | 0 mm | - | 6 W/m² | - |
| 1777461359 | 16.67° C | 99% | 1014.2 hPa | 0 mm | - | 4 W/m² | - |
| 1777461055 | 16.67° C | 99% | 1014.1 hPa | 0 mm | - | 4 W/m² | - |
| 1777460751 | 16.67° C | 99% | 1014.1 hPa | 0 mm | - | 3 W/m² | - |
| 1777460447 | 16.67° C | 99% | 1014.1 hPa | 0 mm | - | 3 W/m² | - |
| 1777460142 | 16.67° C | 99% | 1013.9 hPa | 0 mm | - | 2 W/m² | - |
| 1777459840 | 16.67° C | 99% | 1013.9 hPa | 0 mm | - | 1 W/m² | - |
* Rain latest hour (hover to see other rain measurements)
** Current wind speed in m/s (hover to see current wind gust speed)